Regional Weather Roundup
Issued by NWS

Home | Current Version | Previous Version | Graphics & Text | Print | Product List | Glossary On
Versions: 1 2 3 4 5 6 7 8 9 10 11 12 13 14 15 16 17 18 19 20 21 22 23 24 25 26 27 28 29 30 31 32 33 34 35 36 37 38 39 40 41 42 43 44 45 46 47 48 49 50
000
ASUS43 KTOP 041159
RWRKS

WEATHER ROUNDUP FOR KANSAS
NATIONAL WEATHER SERVICE GOODLAND KS
600 AM CST SUN DEC 04 2016

NOTE:  "FAIR" INDICATES FEW OR NO CLOUDS BELOW 12,000 FEET WITH NO
SIGNIFICANT WEATHER AND/OR OBSTRUCTIONS TO VISIBILITY.

KSZ001>006-013>018-027>032-041>047-041300-
NORTHWEST KANSAS

CITY           SKY/WX    TMP DP  RH WIND       PRES   REMARKS
GOODLAND       CLEAR     21  12  68 W13       30.02S WCI   9
6HR MIN TEMP:  18; 6HR MAX TEMP:  25;

HAYS           CLEAR     28  27  96 W6        30.02S
HILL CITY      CLEAR     25  20  81 W6        30.02S
6HR MIN TEMP:  25; 6HR MAX TEMP:  35;

RUSSELL        CLOUDY    32  31  96 W12       30.00S FOG     WCI  23
6HR MIN TEMP:  29; 6HR MAX TEMP:  34; 6HR PCP:  0.01;

$$

KSZ061>065-074>080-084>089-041300-
SOUTHWEST KANSAS

CITY           SKY/WX    TMP DP  RH WIND       PRES   REMARKS
DODGE CITY     CLEAR     28  25  88 NW10      30.04S WCI  19
6HR MIN TEMP:  28; 6HR MAX TEMP:  37;

ELKHART          N/A     26  16  66 W7          N/A
GARDEN CITY    CLEAR     23  18  81 NW12      30.04R WCI  12
6HR MIN TEMP:  23; 6HR MAX TEMP:  32;

GREAT BEND     CLOUDY    34  34 100 W12       30.03S WCI  25
LIBERAL        CLEAR     30  25  80 NW10      30.06S WCI  21
$$

KSZ066>073-081>083-090>101-041300-
SOUTHEAST KANSAS

CITY           SKY/WX    TMP DP  RH WIND       PRES   REMARKS
CHANUTE        LGT RAIN  41  40  96 CALM      30.02F FOG
6HR MIN TEMP:  40; 6HR MAX TEMP:  41; 6HR PCP:  0.22;

COFFEYVILLE    LGT RAIN  42  41  96 CALM      30.02F FOG
6HR MIN TEMP:  41; 6HR MAX TEMP:  42; 6HR PCP:  0.16;

HUTCHINSON     CLOUDY    39  37  92 NW6       30.02S
6HR MIN TEMP:  38; 6HR MAX TEMP:  40; 6HR PCP:  0.02;

MEDICINE LODGE   N/A     38  37  97 W3        30.03F
NEWTON         CLOUDY    39  38  96 W5        30.02F
PARSONS        LGT RAIN  42  41  96 CALM      30.03F FOG
6HR MIN TEMP:  41; 6HR MAX TEMP:  42; 6HR PCP:  0.13;

WICHITA INTL   CLOUDY    41  39  93 NW3       30.02F
6HR MIN TEMP:  41; 6HR MAX TEMP:  42; 6HR PCP:  0.16;

WICHITA JABRA  LGT RAIN  40  39  97 NW6       30.02F
6HR MIN TEMP:  40; 6HR MAX TEMP:  40;

WICHITA MCCONL DRIZZLE   41  39  93 NW5       30.02F
WINFIELD       CLOUDY    41  41 100 N5        30.03F
6HR MIN TEMP:  41; 6HR MAX TEMP:  43; 6HR PCP:  0.18;

$$

KSZ007>012-019>026-033>040-048>060-102>105-041300-
NORTHEAST KANSAS

CITY           SKY/WX    TMP DP  RH WIND       PRES   REMARKS
CONCORDIA      FOG       31  31 100 W9        30.01F VSB 3/4
6HR MIN TEMP:  31; 6HR MAX TEMP:  36; 6HR PCP:  0.03;

EMPORIA        LGT RAIN  38  37  97 NW3       30.02R
6HR MIN TEMP:  38; 6HR MAX TEMP:  40; 6HR PCP:  0.31;

LAWRENCE       LGT RAIN  39  38  96 SW5       30.02F FOG
6HR MIN TEMP:  39; 6HR MAX TEMP:  41; 6HR PCP:  0.45;

MANHATTAN      CLOUDY    39  38  96 CALM      30.01F
6HR MIN TEMP:  39; 6HR MAX TEMP:  41; 6HR PCP:  0.26;

OLATHE IND     RAIN      39  38  96 S7        30.03S FOG
6HR MIN TEMP:  38; 6HR MAX TEMP:  40; 6HR PCP:  0.34;

OLATHE EXE     LGT RAIN  38  37  97 SW6       30.02S
6HR MIN TEMP:  38; 6HR MAX TEMP:  39; 6HR PCP:  0.35;

SALINA         MOCLDY    35  34  96 NW9       30.02F
6HR MIN TEMP:  35; 6HR MAX TEMP:  42; 6HR PCP:  0.11;

TOPEKA BILLARD LGT RAIN  40  36  86 W3        30.03S
6HR MIN TEMP:  40; 6HR MAX TEMP:  41; 6HR PCP:  0.38;

TOPEKA FORBES  LGT RAIN  40  37  89 W5        30.01F
6HR MIN TEMP:  40; 6HR MAX TEMP:  42; 6HR PCP:  0.43;

$$




USA.gov is the U.S. government's official web portal to all federal, state and local government web resources and services.